A/2018 V3

Japanese version
Home page
Updated on August 15, 2020

---------------------------------------------------------------------

* Profile

Discovery Date November 12, 2018
Magnitude 21.9 mag
Discoverer Pan-STARRS 2 (Haleakala)

* Pictures

* Orbital Elements

Epoch 2019 Aug. 25.0 TT = JDT 2458720.5
T 2019 Sept. 8.69989 TT                                 Rudenko
q   1.3395043            (2000.0)            P               Q
z  +0.0082129      Peri.    3.50033     +0.57742210     -0.79095579
 +/-0.0000005      Node   308.65548     -0.75522867     -0.61164233
e   0.9889988      Incl.  164.97713     -0.31018281     +0.01681096
H   15.7
From 287 observations 2018 Nov. 2-2020 June 16, mean residual 0".6.

* Finding Charts

* Magnitudes Graph

        H = 15.5  G = 0.15

---------------------------------------------------------------------

The orbital elements are published on M.P.E.C. 2020-P19.
The charts are made with StellaNavigator Ver.10 (AstroArts).
The magnitudes graphs are made with Comet for Windows.

---------------------------------------------------------------------

Copyright(C) Seiichi Yoshida (comet@aerith.net). All rights reserved.